Time,TemperatureF,DewpointF,PressureIn,WindDirection,WindDirectionDegrees,WindSpeedMPH,WindSpeedGustMPH,Humidity,HourlyPrecipIn,Conditions,Clouds,dailyrainin,SolarRadiationWatts/m^2,SoftwareType,DateUTC
2013-09-17 00:22:00,64.0,43.0,-100.00,West,281,2.0,18.0,47,-99.99,,,0.00,0.000000,,2013-09-17 06:22:00,
2013-09-17 00:32:00,64.0,43.0,-100.00,West,281,2.0,18.0,47,-99.99,,,0.00,0.000000,,2013-09-17 06:32:00,
2013-09-17 00:42:00,64.0,43.0,-100.00,West,281,2.0,18.0,47,-99.99,,,0.00,0.000000,,2013-09-17 06:42:00,
2013-09-17 01:43:00,59.0,41.0,-100.00,SW,229,3.0,7.0,52,-99.99,,,0.00,0.000000,,2013-09-17 07:43:00,
2013-09-17 01:52:00,59.0,41.0,-100.00,SW,229,3.0,7.0,52,-99.99,,,0.00,0.000000,,2013-09-17 07:52:00,
2013-09-17 02:02:00,59.0,41.0,-100.00,SW,229,3.0,7.0,52,-99.99,,,0.00,0.000000,,2013-09-17 08:02:00,
2013-09-17 02:42:00,58.0,41.0,-100.00,SW,226,7.0,8.0,54,0.00,,,0.00,0.000000,,2013-09-17 08:42:00,
2013-09-17 02:52:00,58.0,41.0,-100.00,SW,226,7.0,8.0,54,0.00,,,0.00,0.000000,,2013-09-17 08:52:00,
2013-09-17 03:02:00,58.0,41.0,-100.00,SW,226,7.0,8.0,54,0.00,,,0.00,0.000000,,2013-09-17 09:02:00,
2013-09-17 03:03:00,59.0,40.0,-100.00,West,270,1.0,10.0,49,0.00,,,0.00,0.000000,,2013-09-17 09:03:00,
2013-09-17 03:22:00,59.0,40.0,-100.00,West,270,1.0,10.0,49,0.00,,,0.00,0.000000,,2013-09-17 09:22:00,
2013-09-17 03:33:00,59.0,40.0,-100.00,West,270,1.0,10.0,49,0.00,,,0.00,0.000000,,2013-09-17 09:33:00,
2013-09-17 03:53:00,59.0,40.0,-100.00,West,270,1.0,10.0,49,0.00,,,0.00,0.000000,,2013-09-17 09:53:00,
2013-09-17 04:03:00,56.0,40.0,-100.00,West,264,0.0,9.0,54,0.00,,,0.00,0.000000,,2013-09-17 10:03:00,
2013-09-17 04:53:00,56.0,40.0,-100.00,West,264,0.0,9.0,54,0.00,,,0.00,0.000000,,2013-09-17 10:53:00,
2013-09-17 05:22:00,55.0,40.0,-100.00,West,275,0.0,7.0,57,0.00,,,0.00,0.000000,,2013-09-17 11:22:00,
2013-09-17 05:33:00,55.0,40.0,-100.00,West,275,0.0,7.0,57,0.00,,,0.00,0.000000,,2013-09-17 11:33:00,
2013-09-17 05:52:00,55.0,40.0,-100.00,West,275,0.0,7.0,57,0.00,,,0.00,0.000000,,2013-09-17 11:52:00,
2013-09-17 06:02:00,55.0,40.0,-100.00,West,275,0.0,7.0,57,0.00,,,0.00,0.000000,,2013-09-17 12:02:00,
2013-09-17 06:42:00,52.0,39.0,-100.00,WSW,238,4.0,6.0,62,0.00,,,0.00,0.000000,,2013-09-17 12:42:00,
2013-09-17 06:52:00,52.0,39.0,-100.00,WSW,238,4.0,6.0,62,0.00,,,0.00,0.000000,,2013-09-17 12:52:00,
2013-09-17 07:02:00,52.0,39.0,-100.00,WSW,238,4.0,6.0,62,0.00,,,0.00,0.000000,,2013-09-17 13:02:00,
2013-09-17 07:42:00,50.0,38.0,-100.00,SW,223,1.0,9.0,64,0.00,,,0.00,0.000000,,2013-09-17 13:42:00,
2013-09-17 07:52:00,50.0,38.0,-100.00,SW,223,1.0,9.0,64,0.00,,,0.00,0.000000,,2013-09-17 13:52:00,
2013-09-17 08:02:00,50.0,38.0,-100.00,SW,223,1.0,9.0,64,0.00,,,0.00,0.000000,,2013-09-17 14:02:00,
2013-09-17 09:03:00,56.0,41.0,-100.00,SSE,148,6.0,8.0,57,0.00,,,0.00,46.000000,,2013-09-17 15:03:00,
2013-09-17 09:53:00,56.0,41.0,-100.00,SSE,148,6.0,8.0,57,0.00,,,0.00,46.000000,,2013-09-17 15:53:00,
2013-09-17 10:03:00,59.0,42.0,-100.00,SSW,196,11.0,21.0,54,0.00,,,0.00,47.000000,,2013-09-17 16:03:00,
2013-09-17 10:23:00,59.0,42.0,-100.00,SSW,196,11.0,21.0,54,0.00,,,0.00,47.000000,,2013-09-17 16:23:00,
2013-09-17 10:32:00,59.0,42.0,-100.00,SSW,196,11.0,21.0,54,0.00,,,0.00,47.000000,,2013-09-17 16:32:00,
2013-09-17 10:54:00,59.0,42.0,-100.00,SSW,196,11.0,21.0,54,0.00,,,0.00,47.000000,,2013-09-17 16:54:00,
2013-09-17 11:43:00,57.0,43.0,-100.00,SW,218,12.0,21.0,59,0.00,,,-99.99,68.000000,,2013-09-17 17:43:00,
2013-09-17 11:53:00,57.0,43.0,-100.00,SW,218,12.0,21.0,59,0.00,,,-99.99,68.000000,,2013-09-17 17:53:00,
2013-09-17 12:02:00,57.0,43.0,-100.00,SW,218,12.0,21.0,59,0.00,,,-99.99,68.000000,,2013-09-17 18:02:00,
2013-09-17 12:22:00,60.0,47.0,-100.00,SE,145,4.0,23.0,62,0.00,,,0.00,205.000000,,2013-09-17 18:22:00,
2013-09-17 12:32:00,60.0,47.0,-100.00,SE,145,4.0,23.0,62,0.00,,,0.00,205.000000,,2013-09-17 18:32:00,
2013-09-17 12:42:00,60.0,47.0,-100.00,SE,145,4.0,23.0,62,0.00,,,0.00,205.000000,,2013-09-17 18:42:00,
2013-09-17 12:52:00,60.0,47.0,-100.00,SE,145,4.0,23.0,62,0.00,,,0.00,205.000000,,2013-09-17 18:52:00,
2013-09-17 13:02:00,60.0,47.0,-100.00,SE,145,4.0,23.0,62,0.00,,,0.00,205.000000,,2013-09-17 19:02:00,
2013-09-17 13:42:00,57.0,46.0,-100.00,WSW,238,15.0,19.0,67,0.00,,,0.00,119.000000,,2013-09-17 19:42:00,
2013-09-17 13:52:00,57.0,46.0,-100.00,WSW,238,15.0,19.0,67,0.00,,,0.00,119.000000,,2013-09-17 19:52:00,
2013-09-17 14:02:00,57.0,46.0,-100.00,WSW,238,15.0,19.0,67,0.00,,,0.00,119.000000,,2013-09-17 20:02:00,
2013-09-17 15:03:00,61.0,51.0,-100.00,North,354,3.0,13.0,70,-99.99,,,0.03,458.000000,,2013-09-17 21:03:00,
2013-09-17 15:22:00,61.0,51.0,-100.00,North,354,3.0,13.0,70,-99.99,,,0.03,458.000000,,2013-09-17 21:22:00,
2013-09-17 15:34:00,61.0,51.0,-100.00,North,354,3.0,13.0,70,-99.99,,,0.03,458.000000,,2013-09-17 21:34:00,
2013-09-17 15:44:00,61.0,51.0,-100.00,North,354,3.0,13.0,70,-99.99,,,0.03,458.000000,,2013-09-17 21:44:00,
2013-09-17 15:54:00,61.0,51.0,-100.00,North,354,3.0,13.0,70,-99.99,,,0.03,458.000000,,2013-09-17 21:54:00,
2013-09-17 16:03:00,58.0,52.0,-100.00,WSW,245,9.0,12.0,80,0.09,,,0.12,33.000000,,2013-09-17 22:03:00,
2013-09-17 16:44:00,58.0,52.0,-100.00,WSW,245,9.0,12.0,80,0.09,,,0.12,33.000000,,2013-09-17 22:44:00,
2013-09-17 16:53:00,58.0,52.0,-100.00,WSW,245,9.0,12.0,80,0.09,,,0.12,33.000000,,2013-09-17 22:53:00,
2013-09-17 17:42:00,56.0,53.0,-100.00,NW,326,8.0,15.0,91,0.05,,,0.17,71.000000,,2013-09-17 23:42:00,
2013-09-17 17:52:00,56.0,53.0,-100.00,NW,326,8.0,15.0,91,0.05,,,0.17,71.000000,,2013-09-17 23:52:00,
2013-09-17 18:02:00,56.0,53.0,-100.00,NW,326,8.0,15.0,91,0.05,,,0.17,71.000000,,2013-09-18 00:02:00,
2013-09-17 18:42:00,56.0,47.0,-100.00,West,261,6.0,17.0,71,0.03,,,0.20,49.000000,,2013-09-18 00:42:00,
2013-09-17 18:52:00,56.0,47.0,-100.00,West,261,6.0,17.0,71,0.03,,,0.20,49.000000,,2013-09-18 00:52:00,
2013-09-17 19:01:00,56.0,47.0,-100.00,West,261,6.0,17.0,71,0.03,,,0.20,49.000000,,2013-09-18 01:01:00,
2013-09-17 19:03:00,53.0,49.0,-100.00,ENE,73,0.0,16.0,87,0.02,,,0.22,1.000000,,2013-09-18 01:03:00,
2013-09-17 19:22:00,53.0,49.0,-100.00,ENE,73,0.0,16.0,87,0.02,,,0.22,1.000000,,2013-09-18 01:22:00,
2013-09-17 19:32:00,53.0,49.0,-100.00,ENE,73,0.0,16.0,87,0.02,,,0.22,1.000000,,2013-09-18 01:32:00,
2013-09-17 19:42:00,53.0,49.0,-100.00,ENE,73,0.0,16.0,87,0.02,,,0.22,1.000000,,2013-09-18 01:42:00,
2013-09-17 19:52:00,53.0,49.0,-100.00,ENE,73,0.0,16.0,87,0.02,,,0.22,1.000000,,2013-09-18 01:52:00,
2013-09-17 20:22:00,54.0,50.0,-100.00,SW,229,3.0,13.0,85,0.00,,,0.22,0.000000,,2013-09-18 02:22:00,
2013-09-17 20:32:00,54.0,50.0,-100.00,SW,229,3.0,13.0,85,0.00,,,0.22,0.000000,,2013-09-18 02:32:00,
2013-09-17 20:43:00,54.0,50.0,-100.00,SW,229,3.0,13.0,85,0.00,,,0.22,0.000000,,2013-09-18 02:43:00,
2013-09-17 20:52:00,54.0,50.0,-100.00,SW,229,3.0,13.0,85,0.00,,,0.22,0.000000,,2013-09-18 02:52:00,
2013-09-17 21:02:00,54.0,50.0,-100.00,SW,229,3.0,13.0,85,0.00,,,0.22,0.000000,,2013-09-18 03:02:00,
2013-09-17 21:03:00,53.0,46.0,-100.00,SW,225,8.0,11.0,76,0.00,,,0.22,0.000000,,2013-09-18 03:03:00,
2013-09-17 21:23:00,53.0,46.0,-100.00,SW,225,8.0,11.0,76,0.00,,,0.22,0.000000,,2013-09-18 03:23:00,
2013-09-17 21:35:00,53.0,46.0,-100.00,SW,225,8.0,11.0,76,0.00,,,0.22,0.000000,,2013-09-18 03:35:00,
2013-09-17 21:44:00,53.0,46.0,-100.00,SW,225,8.0,11.0,76,0.00,,,0.22,0.000000,,2013-09-18 03:44:00,
2013-09-17 21:55:00,53.0,46.0,-100.00,SW,225,8.0,11.0,76,0.00,,,0.22,0.000000,,2013-09-18 03:55:00,
2013-09-17 22:03:00,55.0,45.0,-100.00,SSW,194,8.0,14.0,69,0.00,,,0.22,0.000000,,2013-09-18 04:03:00,
2013-09-17 22:24:00,55.0,45.0,-100.00,SSW,194,8.0,14.0,69,0.00,,,0.22,0.000000,,2013-09-18 04:24:00,
2013-09-17 22:34:00,55.0,45.0,-100.00,SSW,194,8.0,14.0,69,0.00,,,0.22,0.000000,,2013-09-18 04:34:00,
2013-09-17 22:44:00,55.0,45.0,-100.00,SSW,194,8.0,14.0,69,0.00,,,0.22,0.000000,,2013-09-18 04:44:00,
2013-09-17 22:54:00,55.0,45.0,-100.00,SSW,194,8.0,14.0,69,0.00,,,0.22,0.000000,,2013-09-18 04:54:00,
2013-09-17 23:23:00,54.0,46.0,-100.00,SE,141,10.0,18.0,74,0.01,,,0.23,0.000000,,2013-09-18 05:23:00,
2013-09-17 23:33:00,54.0,46.0,-100.00,SE,141,10.0,18.0,74,0.01,,,0.23,0.000000,,2013-09-18 05:33:00,
2013-09-17 23:43:00,54.0,46.0,-100.00,SE,141,10.0,18.0,74,0.01,,,0.23,0.000000,,2013-09-18 05:43:00,
2013-09-17 23:53:00,54.0,46.0,-100.00,SE,141,10.0,18.0,74,0.01,,,0.23,0.000000,,2013-09-18 05:53:00,